Location: Lecco
(45.8566°N, 9.3977°E)
Time: 01:28:36
(UTC+02:00)

ISS - Pass Details

Date: 15 July 2018
Orbit: 402 x 408 km, 51.6° (Epoch: 22 July)

Event Time Altitude Azimuth Distance (km) Brightness Sun altitude
Rises 04:57:32 0° 296° (WNW) 2,334 -0.2 -7.6°
Reaches altitude 10° 04:59:43 10° 305° (NW) 1,473 -1.1 -7.3°
Maximum altitude 05:02:50 38° 15° (NNE) 644 -2.2 -6.9°
Drops below altitude 10° 05:05:57 10° 86° (E) 1,471 -0.1 -6.5°
Sets 05:08:07 0° 94° (E) 2,331 0.8 -6.2°
